Other Surface Observations
Issued by NWS

Home | Current Version | Previous Version | Text Only | Print | Product List | Glossary On
Versions: 1 2 3 4 5 6 7 8 9 10 11 12 13 14 15 16 17 18 19 20 21 22 23 24 25 26 27 28 29 30 31 32 33 34 35 36 37 38 39 40 41 42 43 44 45 46 47 48 49 50
000
SXUS52 KTAE 300110
OSOTAE
OSOTAE
North Florida/South Alabama/Southwest Georgia Weather Roundup
National Weather Service Tallahassee Florida
900 PM EDT WED JUL 29 2015

Note: "fair" indicates few or no clouds below 12,000 feet with no
significant weather and/or obstructions to visibility.

!FLZ017-115-028-034-025-300200
...North Florida...

CITY           SKY/WX    TMP DP  RH WIND       PRES   REMARKS
TALLAHASSEE    CLOUDY    79  76  90 W8        29.97F THUNDER
APALACHICOLA   CLOUDY    81  77  88 E7        29.98R
PERRY          MOCLDY    76  76 100 CALM      29.99S
CROSS CITY       N/A     76  74  93 CALM      29.98R
JACKSONVILLE   MOCLDY    81  75  82 E6        29.95S
$$

!FLZ112-006-005-002-011-300200
...Florida Panhandle...

CITY           SKY/WX    TMP DP  RH WIND       PRES   REMARKS
MARIANNA       CLOUDY    82  76  81 S7        29.95S
BONIFAY        FAIR      78  76  93 CALM      29.96R
PANAMA CITY NW FAIR      77  74  90 S3        29.95R
TYNDALL AFB    CLOUDY    79  77  93 SE2       29.97R
TYND DRONE APT MOCLDY    80  78  93 E5        29.96R
DE FUNIAK SPR  FAIR      78  76  95 CALM      29.97S
EGLIN AFB      CLOUDY    83  75  78 CALM      29.95S HX  90
DESTIN         CLOUDY    86  76  71 CALM      29.95S HX  96
HURLBURT       CLEAR     82  74  77 NW3       29.94F
CRESTVIEW      CLOUDY    81  80  97 CALM      29.97S HX  91
PENSACOLA      CLOUDY    79  76  90 NW6       29.95F
$$

!ALZ063-066-300200
...South Alabama...

CITY           SKY/WX    TMP DP  RH WIND       PRES   REMARKS
DOTHAN         MOCLDY    83  76  79 W7        29.98R HX  91
OZARK CAIRNS   MOCLDY    80  77  90 SW3       29.95R
FT RUCKER HELI MOCLDY    82  76  81 W3        29.93S
RUCKER HELI 3  FAIR      81  73  78 W5        29.96S
RUCKER HELI 2  FAIR      81  81 100 CALM      29.94S HX  92
FLORALA APT    CLOUDY    78  75  90 CALM      29.97F
ANDALUSIA      CLOUDY    82  76  81 CALM      29.95F
TROY           MOCLDY    82  76  81 CALM      29.96F
EUFALA         FAIR      84  78  82 CALM      29.94R HX  95
MOBILE         CLOUDY    81  77  88 CALM      29.98F
$$

!GAZ120>161-300200
...Southwest and South Central Georgia...

CITY           SKY/WX    TMP DP  RH WIND       PRES   REMARKS
THOMASVILLE    CLOUDY    79  77  94 W3        29.99R
BAINBRIDGE     TSTM      79  77  94 SW17G25   29.97R
MOODY AFB      PTCLDY    82  75  77 S7        29.94R
VALDOSTA       PTCLDY    81  78  91 S6        29.97R
MOULTRIE       MOCLDY    81  77  89 NW7       30.00R
BLAKELY        MOCLDY    86  77  74 CALM      29.95R HX  97
ALBANY         TSTM      78  75  90 NW13      29.99R FOG
TIFTON         LGT RAIN  80  78  94 CALM      29.95S
FITZGERALD     FAIR      83  72  70 CALM      29.97R
CORDELE        MOCLDY    87  73  63 SW8       29.96R HX  94
AMERICUS       MOCLDY    82  70  65 NW5       29.97R
HOMERVILLE     FAIR      86  79  79 SE8       29.96R THUNDER HX  99
$$

!GMZ750-755-770-775-300200
...Coastal and Buoy Obs...

STATION/POSITION TIME  TEMP    WIND        PRES    VSBY  WAVE
                       AIR SEA DIR/SP/G                  HT/PER
                 (UTC) (F)     (DEG/KT/KT) (MB)    (MI)  (FT/S)
KEATON BEACH     0100   82     210/ 14/ 17 1015.3R
CEDAR KEY        0100   80     270/  9/ 11 1015.0F
C TOWER          0100   77     100/ 22/ 24 1015.6R
APALACHICOLA BUO 0050   81 85  250/ 14/ 16 1015.0R         3/ 4
PANAMA CITY BUOY 0050   87 88  280/ 12/ 14 1014.7S         2/ 5
MOBILE BUOY      0050   87 91  240/ 10/ 12 1014.5F         1
ORANGE BCH AL BU 0050   83 85  310/  8/ 10 1014.1R         1/ 3
$$



USA.gov is the U.S. government's official web portal to all federal, state and local government web resources and services.